<?xml version="1.0" encoding="UTF-8" standalone="no" ?>
<gpx xmlns="http://www.topografix.com/GPX/1/1" xmlns:xsi="http://www.w3.org/2001/XMLSchema-instance" xsi:schemaLocation="http://www.topografix.com/GPX/1/1 http://www.topografix.com/GPX/1/1/gpx.xsd" version="1.1" creator="VisuGPX - https://www.visugpx.com">
  <metadata>
    <name>Mazieres_EtangNouesLacRibou_22km</name>
    <desc><![CDATA[gnerando idor:8206985_13135204]]></desc>
  </metadata>
  <trk>
    <name><![CDATA[Mazieres_lacRibou_22km-8206985]]></name>
    <extensions>
      <line xmlns="http://www.topografix.com/GPX/gpx_style/0/2">
        <color>0000FF</color>
        <width>4</width>
      </line>
    </extensions>
    <trkseg>
      <trkpt lat="47.03773" lon="-0.83564">
        <ele>88</ele>
        <time>2023-11-05T13:02:22Z</time>
      </trkpt>
      <trkpt lat="47.03822" lon="-0.83564">
        <ele>91</ele>
        <time>2023-11-05T13:03:27Z</time>
      </trkpt>
      <trkpt lat="47.03814" lon="-0.83453">
        <ele>89</ele>
        <time>2023-11-05T13:05:09Z</time>
      </trkpt>
      <trkpt lat="47.03846" lon="-0.83411">
        <ele>90</ele>
        <time>2023-11-05T13:06:06Z</time>
      </trkpt>
      <trkpt lat="47.03873" lon="-0.83425">
        <ele>93</ele>
        <time>2023-11-05T13:06:44Z</time>
      </trkpt>
      <trkpt lat="47.04078" lon="-0.83277">
        <ele>105</ele>
        <time>2023-11-05T13:11:49Z</time>
      </trkpt>
      <trkpt lat="47.0411" lon="-0.83169">
        <ele>104</ele>
        <time>2023-11-05T13:13:36Z</time>
      </trkpt>
      <trkpt lat="47.04073" lon="-0.82819">
        <ele>106</ele>
        <time>2023-11-05T13:18:58Z</time>
      </trkpt>
      <trkpt lat="47.04125" lon="-0.82765">
        <ele>108</ele>
        <time>2023-11-05T13:20:23Z</time>
      </trkpt>
      <trkpt lat="47.04147" lon="-0.82645">
        <ele>110</ele>
        <time>2023-11-05T13:22:17Z</time>
      </trkpt>
      <trkpt lat="47.04292" lon="-0.82378">
        <ele>103</ele>
        <time>2023-11-05T13:27:27Z</time>
      </trkpt>
      <trkpt lat="47.04304" lon="-0.8231">
        <ele>101</ele>
        <time>2023-11-05T13:28:31Z</time>
      </trkpt>
      <trkpt lat="47.04437" lon="-0.82165">
        <ele>104</ele>
        <time>2023-11-05T13:32:12Z</time>
      </trkpt>
      <trkpt lat="47.04582" lon="-0.82097">
        <ele>116</ele>
        <time>2023-11-05T13:35:35Z</time>
      </trkpt>
      <trkpt lat="47.04668" lon="-0.82303">
        <ele>119</ele>
        <time>2023-11-05T13:39:15Z</time>
      </trkpt>
      <trkpt lat="47.05098" lon="-0.82025">
        <ele>141</ele>
        <time>2023-11-05T13:49:42Z</time>
      </trkpt>
      <trkpt lat="47.05202" lon="-0.81999">
        <ele>144</ele>
        <time>2023-11-05T13:52:03Z</time>
      </trkpt>
      <trkpt lat="47.05253" lon="-0.82104">
        <ele>146</ele>
        <time>2023-11-05T13:54:00Z</time>
      </trkpt>
      <trkpt lat="47.05391" lon="-0.82133">
        <ele>152</ele>
        <time>2023-11-05T13:57:06Z</time>
      </trkpt>
      <trkpt lat="47.05543" lon="-0.82072">
        <ele>156</ele>
        <time>2023-11-05T14:00:36Z</time>
      </trkpt>
      <trkpt lat="47.0563" lon="-0.82092">
        <ele>156</ele>
        <time>2023-11-05T14:02:34Z</time>
      </trkpt>
      <trkpt lat="47.05767" lon="-0.81981">
        <ele>154</ele>
        <time>2023-11-05T14:06:02Z</time>
      </trkpt>
      <trkpt lat="47.05944" lon="-0.81978">
        <ele>152</ele>
        <time>2023-11-05T14:09:59Z</time>
      </trkpt>
      <trkpt lat="47.0632" lon="-0.81242">
        <ele>138</ele>
        <time>2023-11-05T14:23:55Z</time>
      </trkpt>
      <trkpt lat="47.06738" lon="-0.81224">
        <ele>132</ele>
        <time>2023-11-05T14:33:13Z</time>
      </trkpt>
      <trkpt lat="47.06915" lon="-0.80866">
        <ele>133</ele>
        <time>2023-11-05T14:39:55Z</time>
      </trkpt>
      <trkpt lat="47.07075" lon="-0.80661">
        <ele>137</ele>
        <time>2023-11-05T14:44:39Z</time>
      </trkpt>
      <trkpt lat="47.07439" lon="-0.80657">
        <ele>136</ele>
        <time>2023-11-05T14:52:44Z</time>
      </trkpt>
      <trkpt lat="47.07424" lon="-0.80971">
        <ele>129</ele>
        <time>2023-11-05T14:57:30Z</time>
      </trkpt>
      <trkpt lat="47.07451" lon="-0.81501">
        <ele>128</ele>
        <time>2023-11-05T15:05:33Z</time>
      </trkpt>
      <trkpt lat="47.07092" lon="-0.81433">
        <ele>126</ele>
        <time>2023-11-05T15:13:36Z</time>
      </trkpt>
      <trkpt lat="47.06893" lon="-0.81574">
        <ele>129</ele>
        <time>2023-11-05T15:18:31Z</time>
      </trkpt>
      <trkpt lat="47.06677" lon="-0.81397">
        <ele>132</ele>
        <time>2023-11-05T15:24:01Z</time>
      </trkpt>
      <trkpt lat="47.06736" lon="-0.81191">
        <ele>133</ele>
        <time>2023-11-05T15:27:25Z</time>
      </trkpt>
      <trkpt lat="47.06729" lon="-0.81205">
        <ele>133</ele>
        <time>2023-11-05T15:27:40Z</time>
      </trkpt>
      <trkpt lat="47.06332" lon="-0.81229">
        <ele>138</ele>
        <time>2023-11-05T15:36:31Z</time>
      </trkpt>
      <trkpt lat="47.06188" lon="-0.81562">
        <ele>142</ele>
        <time>2023-11-05T15:42:29Z</time>
      </trkpt>
      <trkpt lat="47.05924" lon="-0.82">
        <ele>153</ele>
        <time>2023-11-05T15:51:21Z</time>
      </trkpt>
      <trkpt lat="47.05765" lon="-0.82697">
        <ele>153</ele>
        <time>2023-11-05T16:02:29Z</time>
      </trkpt>
      <trkpt lat="47.05286" lon="-0.82946">
        <ele>143</ele>
        <time>2023-11-05T16:13:47Z</time>
      </trkpt>
      <trkpt lat="47.05298" lon="-0.83141">
        <ele>139</ele>
        <time>2023-11-05T16:16:45Z</time>
      </trkpt>
      <trkpt lat="47.05086" lon="-0.83402">
        <ele>136</ele>
        <time>2023-11-05T16:22:54Z</time>
      </trkpt>
      <trkpt lat="47.04862" lon="-0.83557">
        <ele>130</ele>
        <time>2023-11-05T16:28:25Z</time>
      </trkpt>
      <trkpt lat="47.04873" lon="-0.83666">
        <ele>132</ele>
        <time>2023-11-05T16:30:05Z</time>
      </trkpt>
      <trkpt lat="47.044" lon="-0.83977">
        <ele>124</ele>
        <time>2023-11-05T16:41:37Z</time>
      </trkpt>
      <trkpt lat="47.04245" lon="-0.83746">
        <ele>115</ele>
        <time>2023-11-05T16:46:31Z</time>
      </trkpt>
      <trkpt lat="47.04188" lon="-0.83889">
        <ele>115</ele>
        <time>2023-11-05T16:49:02Z</time>
      </trkpt>
      <trkpt lat="47.0412" lon="-0.83964">
        <ele>115</ele>
        <time>2023-11-05T16:50:56Z</time>
      </trkpt>
      <trkpt lat="47.0398" lon="-0.83794">
        <ele>108</ele>
        <time>2023-11-05T16:54:58Z</time>
      </trkpt>
      <trkpt lat="47.03923" lon="-0.83626">
        <ele>100</ele>
        <time>2023-11-05T16:57:49Z</time>
      </trkpt>
      <trkpt lat="47.03783" lon="-0.8357">
        <ele>89</ele>
        <time>2023-11-05T17:01:02Z</time>
      </trkpt>
      <trkpt lat="47.03766" lon="-0.83579">
        <ele>88</ele>
        <time>2023-11-05T17:01:27Z</time>
      </trkpt>
      <trkpt lat="47.03744" lon="-0.83652">
        <ele>88</ele>
        <time>2023-11-05T17:02:39Z</time>
      </trkpt>
      <trkpt lat="47.03742" lon="-0.83742">
        <ele>89</ele>
        <time>2023-11-05T17:04:01Z</time>
      </trkpt>
      <trkpt lat="47.03724" lon="-0.83831">
        <ele>93</ele>
        <time>2023-11-05T17:05:26Z</time>
      </trkpt>
      <trkpt lat="47.03641" lon="-0.83917">
        <ele>96</ele>
        <time>2023-11-05T17:07:41Z</time>
      </trkpt>
      <trkpt lat="47.03541" lon="-0.83947">
        <ele>96</ele>
        <time>2023-11-05T17:09:57Z</time>
      </trkpt>
      <trkpt lat="47.03448" lon="-0.83937">
        <ele>90</ele>
        <time>2023-11-05T17:12:02Z</time>
      </trkpt>
      <trkpt lat="47.03372" lon="-0.84111">
        <ele>92</ele>
        <time>2023-11-05T17:15:10Z</time>
      </trkpt>
      <trkpt lat="47.03178" lon="-0.84453">
        <ele>92</ele>
        <time>2023-11-05T17:21:54Z</time>
      </trkpt>
      <trkpt lat="47.03082" lon="-0.84544">
        <ele>90</ele>
        <time>2023-11-05T17:24:27Z</time>
      </trkpt>
      <trkpt lat="47.03106" lon="-0.84605">
        <ele>92</ele>
        <time>2023-11-05T17:25:31Z</time>
      </trkpt>
      <trkpt lat="47.0303" lon="-0.84645">
        <ele>88</ele>
        <time>2023-11-05T17:27:19Z</time>
      </trkpt>
      <trkpt lat="47.02969" lon="-0.8471">
        <ele>88</ele>
        <time>2023-11-05T17:28:59Z</time>
      </trkpt>
      <trkpt lat="47.02878" lon="-0.84692">
        <ele>87</ele>
        <time>2023-11-05T17:31:02Z</time>
      </trkpt>
      <trkpt lat="47.02659" lon="-0.84771">
        <ele>90</ele>
        <time>2023-11-05T17:36:03Z</time>
      </trkpt>
      <trkpt lat="47.02477" lon="-0.84775">
        <ele>84</ele>
        <time>2023-11-05T17:40:06Z</time>
      </trkpt>
      <trkpt lat="47.02415" lon="-0.8484">
        <ele>81</ele>
        <time>2023-11-05T17:41:47Z</time>
      </trkpt>
      <trkpt lat="47.0242" lon="-0.85002">
        <ele>81</ele>
        <time>2023-11-05T17:44:15Z</time>
      </trkpt>
      <trkpt lat="47.02585" lon="-0.85345">
        <ele>78</ele>
        <time>2023-11-05T17:50:37Z</time>
      </trkpt>
      <trkpt lat="47.0272" lon="-0.85323">
        <ele>86</ele>
        <time>2023-11-05T17:53:38Z</time>
      </trkpt>
      <trkpt lat="47.02787" lon="-0.85218">
        <ele>92</ele>
        <time>2023-11-05T17:55:49Z</time>
      </trkpt>
      <trkpt lat="47.02897" lon="-0.85208">
        <ele>92</ele>
        <time>2023-11-05T17:58:16Z</time>
      </trkpt>
      <trkpt lat="47.03185" lon="-0.85197">
        <ele>98</ele>
        <time>2023-11-05T18:04:40Z</time>
      </trkpt>
      <trkpt lat="47.03286" lon="-0.85247">
        <ele>98</ele>
        <time>2023-11-05T18:07:03Z</time>
      </trkpt>
      <trkpt lat="47.03239" lon="-0.85475">
        <ele>89</ele>
        <time>2023-11-05T18:10:39Z</time>
      </trkpt>
      <trkpt lat="47.03237" lon="-0.85587">
        <ele>79</ele>
        <time>2023-11-05T18:12:21Z</time>
      </trkpt>
      <trkpt lat="47.03342" lon="-0.85652">
        <ele>78</ele>
        <time>2023-11-05T18:14:53Z</time>
      </trkpt>
      <trkpt lat="47.03357" lon="-0.85742">
        <ele>76</ele>
        <time>2023-11-05T18:16:18Z</time>
      </trkpt>
      <trkpt lat="47.03411" lon="-0.8581">
        <ele>75</ele>
        <time>2023-11-05T18:17:53Z</time>
      </trkpt>
      <trkpt lat="47.03492" lon="-0.86027">
        <ele>76</ele>
        <time>2023-11-05T18:21:38Z</time>
      </trkpt>
      <trkpt lat="47.03677" lon="-0.86056">
        <ele>76</ele>
        <time>2023-11-05T18:25:46Z</time>
      </trkpt>
      <trkpt lat="47.03753" lon="-0.86182">
        <ele>77</ele>
        <time>2023-11-05T18:28:19Z</time>
      </trkpt>
      <trkpt lat="47.03888" lon="-0.8615">
        <ele>76</ele>
        <time>2023-11-05T18:31:21Z</time>
      </trkpt>
      <trkpt lat="47.03923" lon="-0.86254">
        <ele>76</ele>
        <time>2023-11-05T18:33:07Z</time>
      </trkpt>
      <trkpt lat="47.03989" lon="-0.86301">
        <ele>77</ele>
        <time>2023-11-05T18:34:45Z</time>
      </trkpt>
      <trkpt lat="47.0409" lon="-0.86233">
        <ele>74</ele>
        <time>2023-11-05T18:37:13Z</time>
      </trkpt>
      <trkpt lat="47.04176" lon="-0.86337">
        <ele>74</ele>
        <time>2023-11-05T18:39:42Z</time>
      </trkpt>
      <trkpt lat="47.04297" lon="-0.86417">
        <ele>77</ele>
        <time>2023-11-05T18:42:39Z</time>
      </trkpt>
      <trkpt lat="47.04415" lon="-0.86427">
        <ele>76</ele>
        <time>2023-11-05T18:45:17Z</time>
      </trkpt>
      <trkpt lat="47.04506" lon="-0.86546">
        <ele>78</ele>
        <time>2023-11-05T18:47:59Z</time>
      </trkpt>
      <trkpt lat="47.04548" lon="-0.86958">
        <ele>79</ele>
        <time>2023-11-05T18:54:18Z</time>
      </trkpt>
      <trkpt lat="47.04639" lon="-0.87012">
        <ele>73</ele>
        <time>2023-11-05T18:56:29Z</time>
      </trkpt>
      <trkpt lat="47.04602" lon="-0.86835">
        <ele>76</ele>
        <time>2023-11-05T18:59:17Z</time>
      </trkpt>
      <trkpt lat="47.04575" lon="-0.86749">
        <ele>78</ele>
        <time>2023-11-05T19:00:44Z</time>
      </trkpt>
      <trkpt lat="47.04609" lon="-0.86737">
        <ele>76</ele>
        <time>2023-11-05T19:01:30Z</time>
      </trkpt>
      <trkpt lat="47.0464" lon="-0.86763">
        <ele>75</ele>
        <time>2023-11-05T19:02:18Z</time>
      </trkpt>
      <trkpt lat="47.04666" lon="-0.86736">
        <ele>74</ele>
        <time>2023-11-05T19:03:00Z</time>
      </trkpt>
      <trkpt lat="47.04666" lon="-0.86664">
        <ele>74</ele>
        <time>2023-11-05T19:04:06Z</time>
      </trkpt>
      <trkpt lat="47.04702" lon="-0.86634">
        <ele>74</ele>
        <time>2023-11-05T19:05:01Z</time>
      </trkpt>
      <trkpt lat="47.04723" lon="-0.86577">
        <ele>75</ele>
        <time>2023-11-05T19:06:00Z</time>
      </trkpt>
      <trkpt lat="47.04865" lon="-0.86461">
        <ele>79</ele>
        <time>2023-11-05T19:09:37Z</time>
      </trkpt>
      <trkpt lat="47.04729" lon="-0.86147">
        <ele>84</ele>
        <time>2023-11-05T19:15:15Z</time>
      </trkpt>
      <trkpt lat="47.0477" lon="-0.86054">
        <ele>87</ele>
        <time>2023-11-05T19:16:56Z</time>
      </trkpt>
      <trkpt lat="47.04748" lon="-0.85793">
        <ele>94</ele>
        <time>2023-11-05T19:20:55Z</time>
      </trkpt>
      <trkpt lat="47.04673" lon="-0.85525">
        <ele>103</ele>
        <time>2023-11-05T19:25:18Z</time>
      </trkpt>
      <trkpt lat="47.04526" lon="-0.85582">
        <ele>100</ele>
        <time>2023-11-05T19:28:41Z</time>
      </trkpt>
      <trkpt lat="47.04393" lon="-0.85568">
        <ele>99</ele>
        <time>2023-11-05T19:31:39Z</time>
      </trkpt>
      <trkpt lat="47.04366" lon="-0.8535">
        <ele>103</ele>
        <time>2023-11-05T19:35:01Z</time>
      </trkpt>
      <trkpt lat="47.04375" lon="-0.85046">
        <ele>111</ele>
        <time>2023-11-05T19:39:38Z</time>
      </trkpt>
      <trkpt lat="47.04266" lon="-0.85007">
        <ele>112</ele>
        <time>2023-11-05T19:42:07Z</time>
      </trkpt>
      <trkpt lat="47.04215" lon="-0.84925">
        <ele>114</ele>
        <time>2023-11-05T19:43:48Z</time>
      </trkpt>
      <trkpt lat="47.04059" lon="-0.84978">
        <ele>109</ele>
        <time>2023-11-05T19:47:22Z</time>
      </trkpt>
      <trkpt lat="47.03954" lon="-0.8491">
        <ele>108</ele>
        <time>2023-11-05T19:49:55Z</time>
      </trkpt>
      <trkpt lat="47.0384" lon="-0.84739">
        <ele>110</ele>
        <time>2023-11-05T19:53:33Z</time>
      </trkpt>
      <trkpt lat="47.03884" lon="-0.84657">
        <ele>111</ele>
        <time>2023-11-05T19:55:07Z</time>
      </trkpt>
      <trkpt lat="47.03813" lon="-0.84532">
        <ele>112</ele>
        <time>2023-11-05T19:57:35Z</time>
      </trkpt>
      <trkpt lat="47.03764" lon="-0.84528">
        <ele>110</ele>
        <time>2023-11-05T19:58:41Z</time>
      </trkpt>
      <trkpt lat="47.03857" lon="-0.84553">
        <ele>112</ele>
        <time>2023-11-05T20:00:47Z</time>
      </trkpt>
      <trkpt lat="47.04205" lon="-0.84162">
        <ele>121</ele>
        <time>2023-11-05T20:10:32Z</time>
      </trkpt>
      <trkpt lat="47.04069" lon="-0.83934">
        <ele>114</ele>
        <time>2023-11-05T20:15:08Z</time>
      </trkpt>
      <trkpt lat="47.03919" lon="-0.83664">
        <ele>103</ele>
        <time>2023-11-05T20:20:24Z</time>
      </trkpt>
      <trkpt lat="47.03781" lon="-0.83527">
        <ele>88</ele>
        <time>2023-11-05T20:24:07Z</time>
      </trkpt>
    </trkseg>
  </trk>
</gpx>